Location: ActonStarParty
(42.4766°N, 71.4538°W)
Time: 07:49:47
(UTC-04:00)

Cosmos 2221 - Pass Details

Date: 19 April 2018
Orbit: 594 x 616 km, 82.5° (Epoch: 25 May)

Event Time Altitude Azimuth Distance (km) Brightness Sun altitude
Rises 20:02:02 0° 192° (SSW) 2,827 5.8 -6.0°
Reaches altitude 10° 20:04:15 10° 194° (SSW) 1,927 5.0 -6.4°
Maximum altitude 20:08:29 71° 279° (W) 634 2.9 -7.1°
Drops below altitude 10° 20:12:46 10° 4° (N) 1,938 5.4 -7.9°
Sets 20:14:59 0° 6° (N) 2,844 6.2 -8.2°
